Cambridge, MD

11:06 AM EST on December 15, 2017 (GMT -0500)
Cambridge-Dorchester

Weather History for KCGE - January, 2014

Change the Weather History Date:

Monday, January 6, 2014

  Actual Average (KESN) Record (KESN)
Temperature  
Mean Temperature 38 °F -  
Max Temperature 59 °F 40 °F 70 °F (1950)
Min Temperature 17 °F 23 °F 12 °F (1958)
Degree Days  
Heating Degree Days 27    
Moisture  
Dew Point 34 °F    
Average Humidity 72    
Maximum Humidity 94    
Minimum Humidity 30    
Precipitation  
Precipitation 0.00 in - - ()
Sea Level Pressure  
Sea Level Pressure 29.70 in    
Wind  
Wind Speed 13 mph (West)    
Max Wind Speed 29 mph    
Max Gust Speed 46 mph    
Visibility 8 miles    
Events      
Averages and records for this station are not official NWS values.
T = Trace of Precipitation, MM = Missing Value Source: NWS Daily Summary

Daily Weather History Graph

Daily Weather History Graph

Search for Another Location

Airport or City:

Trip Planner

Search our weather history database for the weather conditions in past years. The results will help you decide how hot, cold, wet, or windy it might be!

Date:

Astronomy

Jan. 06, 2014 Rise Set
Actual Time 7:22 AM EST 4:58 PM EST
Civil Twilight 6:52 AM EST 5:27 PM EST
Nautical Twilight 6:19 AM EST 6:00 PM EST
Astronomical Twilight 5:47 AM EST 6:32 PM EST
Moon 10:40 AM EST (1/6) 11:24 PM EST (1/6)
Length of Visible Light 10h 35m
Length of Day
9h 36m
Waxing Crescent, 34% of the Moon is Illuminated
Jan 6
Waxing Crescent
Jan 7
First Quarter
Jan 15
Full
Jan 24
Last Quarter
Jan 30
New

Hourly Weather History & Observations

Time (EST) Temp. Windchill Dew Point Humidity Pressure Visibility Wind Dir Wind Speed Gust Speed Precip Events Conditions
12:17 AM 57.2 °F - 53.6 °F 88% 29.73 in 5.0 mi South 12.7 mph 17.3 mph N/A   Overcast
12:37 AM 59.0 °F - 55.4 °F 88% 29.71 in 7.0 mi South 11.5 mph 19.6 mph N/A   Overcast
12:57 AM 59.0 °F - 55.4 °F 88% 29.71 in 4.0 mi South 11.5 mph 20.7 mph N/A   Overcast
1:17 AM 59.0 °F - 55.4 °F 88% 29.69 in 7.0 mi South 13.8 mph 19.6 mph N/A   Overcast
1:37 AM 59.0 °F - 55.4 °F 88% 29.68 in 10.0 mi SSE 12.7 mph 21.9 mph N/A   Overcast
1:57 AM 57.2 °F - 55.4 °F 94% 29.68 in 7.0 mi South 12.7 mph 18.4 mph N/A   Overcast
2:17 AM 55.4 °F - 53.6 °F 94% 29.66 in 4.0 mi SSE 13.8 mph - N/A   Overcast
2:37 AM 59.0 °F - 55.4 °F 88% 29.64 in 1.0 mi South 16.1 mph 24.2 mph N/A   Overcast
2:57 AM 59.0 °F - 55.4 °F 88% 29.62 in 1.2 mi South 11.5 mph 25.3 mph N/A   Overcast
3:17 AM 59.0 °F - 55.4 °F 88% 29.61 in 0.8 mi South 10.4 mph 21.9 mph N/A   Overcast
3:37 AM 59.0 °F - 55.4 °F 88% 29.59 in 1.2 mi South 12.7 mph 19.6 mph N/A   Overcast
3:57 AM 59.0 °F - 55.4 °F 88% 29.58 in 1.8 mi South 15.0 mph 21.9 mph N/A   Overcast
4:17 AM 57.2 °F - 53.6 °F 88% 29.57 in 1.8 mi South 10.4 mph 17.3 mph N/A   Overcast
4:37 AM 55.4 °F - 53.6 °F 94% 29.55 in 3.0 mi South 11.5 mph 18.4 mph N/A   Overcast
4:57 AM 55.4 °F - 53.6 °F 94% 29.54 in 5.0 mi South 10.4 mph 16.1 mph N/A   Overcast
5:17 AM 57.2 °F - 55.4 °F 94% 29.53 in 5.0 mi South 12.7 mph 18.4 mph N/A   Overcast
5:37 AM 59.0 °F - 55.4 °F 88% 29.52 in 5.0 mi South 12.7 mph 20.7 mph N/A   Overcast
5:57 AM 59.0 °F - 55.4 °F 88% 29.51 in 5.0 mi South 13.8 mph 23.0 mph N/A   Overcast
6:17 AM 59.0 °F - 55.4 °F 88% 29.50 in 4.0 mi South 15.0 mph 20.7 mph N/A   Overcast
6:37 AM 57.2 °F - 55.4 °F 94% 29.50 in 10.0 mi South 13.8 mph 23.0 mph N/A   Overcast
6:57 AM 57.2 °F - 55.4 °F 94% 29.50 in 10.0 mi South 16.1 mph 25.3 mph N/A   Overcast
7:18 AM 57.2 °F - 55.4 °F 94% 29.50 in 10.0 mi South 15.0 mph 20.7 mph N/A   Overcast
7:38 AM 57.2 °F - 53.6 °F 88% 29.54 in 10.0 mi West 17.3 mph 23.0 mph N/A   Overcast
7:58 AM 51.8 °F - 50.0 °F 94% 29.55 in 3.0 mi WSW 12.7 mph 17.3 mph N/A   Overcast
8:18 AM 51.8 °F - 50.0 °F 94% 29.56 in 4.0 mi WSW 11.5 mph 16.1 mph N/A   Overcast
8:38 AM 51.8 °F - 48.2 °F 88% 29.58 in 10.0 mi West 9.2 mph 16.1 mph N/A   Overcast
8:58 AM 51.8 °F - 46.4 °F 82% 29.57 in 10.0 mi WNW 6.9 mph - N/A   Overcast
9:18 AM 51.8 °F - 46.4 °F 82% 29.58 in 10.0 mi West 6.9 mph - N/A   Overcast
9:38 AM 51.8 °F - 46.4 °F 82% 29.59 in 10.0 mi WNW 5.8 mph - N/A   Overcast
9:58 AM 51.8 °F - 46.4 °F 82% 29.60 in 7.0 mi WNW 8.1 mph - N/A   Overcast
10:18 AM 51.8 °F - 46.4 °F 82% 29.61 in 3.0 mi WNW 5.8 mph - N/A   Overcast
10:38 AM 48.2 °F - 44.6 °F 87% 29.63 in 2.0 mi WNW 8.1 mph - N/A   Overcast
10:58 AM 42.8 °F 35.4 °F 37.4 °F 81% 29.63 in 3.0 mi NW 15.0 mph 33.4 mph N/A   Overcast
11:18 AM 41.0 °F 32.5 °F 35.6 °F 81% 29.66 in 3.0 mi WNW 17.3 mph 32.2 mph N/A   Overcast
11:38 AM 37.4 °F 27.8 °F 33.8 °F 87% 29.64 in 5.0 mi WNW 17.3 mph 24.2 mph N/A   Overcast
11:58 AM 37.4 °F 29.3 °F 33.8 °F 87% 29.65 in 4.0 mi WNW 12.7 mph 21.9 mph N/A   Overcast
12:18 PM 35.6 °F 27.1 °F 33.8 °F 93% 29.63 in 4.0 mi NW 12.7 mph 19.6 mph N/A   Overcast
12:38 PM 35.6 °F 28.0 °F 33.8 °F 93% 29.62 in 5.0 mi NW 10.4 mph - N/A   Overcast
12:58 PM 35.6 °F 29.9 °F 33.8 °F 93% 29.63 in 7.0 mi NW 6.9 mph - N/A   Mostly Cloudy
1:18 PM 35.6 °F 29.9 °F 33.8 °F 93% 29.63 in 10.0 mi NW 6.9 mph - N/A   Overcast
1:38 PM 37.4 °F 32.1 °F 35.6 °F 93% 29.63 in 10.0 mi NW 6.9 mph - N/A   Overcast
1:58 PM 37.4 °F 32.1 °F 35.6 °F 93% 29.63 in 10.0 mi NW 6.9 mph - N/A   Mostly Cloudy
2:18 PM 37.4 °F 29.8 °F 35.6 °F 93% 29.64 in 10.0 mi NW 11.5 mph - N/A   Mostly Cloudy
2:38 PM 41.0 °F 33.9 °F 30.2 °F 65% 29.65 in 10.0 mi WNW 12.7 mph 20.7 mph N/A   Scattered Clouds
2:58 PM 41.0 °F 32.2 °F 26.6 °F 57% 29.66 in 10.0 mi WNW 18.4 mph 25.3 mph N/A   Scattered Clouds
3:18 PM 41.0 °F 34.3 °F 26.6 °F 57% 29.66 in 10.0 mi WNW 11.5 mph 21.9 mph N/A   Clear
3:38 PM 37.4 °F 29.3 °F 23.0 °F 56% 29.68 in 10.0 mi WNW 12.7 mph 21.9 mph N/A   Clear
3:59 PM 37.4 °F 29.8 °F 24.8 °F 60% 29.68 in 10.0 mi WNW 11.5 mph 19.6 mph N/A   Clear
4:19 PM 37.4 °F 30.3 °F 24.8 °F 60% 29.70 in 10.0 mi NW 10.4 mph 18.4 mph N/A   Scattered Clouds
4:39 PM 37.4 °F 31.4 °F 23.0 °F 56% 29.71 in 10.0 mi NW 8.1 mph 18.4 mph N/A   Scattered Clouds
4:59 PM 37.4 °F 29.3 °F 23.0 °F 56% 29.72 in 10.0 mi NW 12.7 mph 17.3 mph N/A   Scattered Clouds
5:19 PM 37.4 °F 30.8 °F 23.0 °F 56% 29.73 in 10.0 mi NW 9.2 mph 20.7 mph N/A   Mostly Cloudy
5:39 PM 37.4 °F 28.5 °F 19.4 °F 48% 29.74 in 10.0 mi NW 15.0 mph 26.5 mph N/A   Overcast
5:59 PM 35.6 °F 25.2 °F 19.4 °F 52% 29.76 in 10.0 mi NW 18.4 mph 24.2 mph N/A   Overcast
6:19 PM 35.6 °F 25.9 °F 19.4 °F 52% 29.76 in 10.0 mi NW 16.1 mph 23.0 mph N/A   Overcast
6:39 PM 35.6 °F 27.5 °F 19.4 °F 52% 29.79 in 10.0 mi NW 11.5 mph 26.5 mph N/A   Mostly Cloudy
6:59 PM 33.8 °F 22.8 °F 14.0 °F 44% 29.80 in 10.0 mi NW 18.4 mph 25.3 mph N/A   Mostly Cloudy
7:19 PM 33.8 °F 23.9 °F 14.0 °F 44% 29.81 in 10.0 mi WNW 15.0 mph 26.5 mph N/A   Mostly Cloudy
7:39 PM 32.0 °F 21.2 °F 15.8 °F 51% 29.82 in 10.0 mi NW 16.1 mph 28.8 mph N/A   Mostly Cloudy
7:59 PM 32.0 °F 22.1 °F 14.0 °F 48% 29.85 in 10.0 mi NW 13.8 mph 25.3 mph N/A   Scattered Clouds
8:19 PM 32.0 °F 19.5 °F 14.0 °F 48% 29.86 in 10.0 mi NW 21.9 mph 31.1 mph N/A   Scattered Clouds
8:39 PM 30.2 °F 18.1 °F 12.2 °F 47% 29.89 in 10.0 mi WNW 18.4 mph 29.9 mph N/A   Scattered Clouds
8:59 PM 28.4 °F 15.4 °F 8.6 °F 43% 29.90 in 10.0 mi WNW 19.6 mph 32.2 mph N/A   Scattered Clouds
9:19 PM 24.8 °F 10.3 °F 3.2 °F 40% 29.93 in 10.0 mi WNW 20.7 mph 35.7 mph N/A   Mostly Cloudy
9:39 PM 23.0 °F 8.3 °F 1.4 °F 39% 29.95 in 10.0 mi WNW 19.6 mph 29.9 mph N/A   Scattered Clouds
9:59 PM 23.0 °F 6.9 °F -0.4 °F 36% 29.97 in 10.0 mi NW 24.2 mph 36.8 mph N/A   Scattered Clouds
10:19 PM 21.2 °F 3.9 °F -4.0 °F 33% 29.99 in 10.0 mi WNW 26.5 mph 41.4 mph N/A   Clear
10:39 PM 19.4 °F 2.5 °F -4.0 °F 36% 30.00 in 10.0 mi WNW 23.0 mph 36.8 mph N/A   Clear
10:59 PM 19.4 °F 0.8 °F -5.8 °F 33% 30.01 in 10.0 mi NW 28.8 mph 41.4 mph N/A   Clear
11:19 PM 19.4 °F 1.4 °F -7.6 °F 30% 30.02 in 10.0 mi WNW 26.5 mph 46.0 mph N/A   Clear
11:39 PM 17.6 °F 0.1 °F -7.6 °F 32% 30.04 in 10.0 mi WNW 23.0 mph 39.1 mph N/A   Clear
11:59 PM 17.6 °F 0.1 °F -5.8 °F 35% 30.05 in 10.0 mi WNW 23.0 mph 35.7 mph N/A   Clear